Boulder City, NV

6:27 PM PST on February 24, 2018 (GMT -0800)
Boulder City

Weather History for KBVU - June, 2013

Change the Weather History Date:

Thursday, June 20, 2013

  Actual Average (KLAS) Record (KLAS)
Temperature  
Mean Temperature 81 °F -  
Max Temperature 98 °F 100 °F 117 °F (2017)
Min Temperature 64 °F 72 °F 53 °F (1939)
Cooling Degree Days 16    
Growing Degree Days 31 (Base 50)    
Moisture  
Dew Point 6 °F    
Average Humidity 6    
Maximum Humidity 18    
Minimum Humidity 4    
Precipitation  
Precipitation 0.00 in - - ()
Sea Level Pressure  
Sea Level Pressure 29.76 in    
Wind  
Wind Speed 6 mph (WSW)    
Max Wind Speed 16 mph    
Max Gust Speed 25 mph    
Visibility 10 miles    
Events Thunderstorm    
Averages and records for this station are not official NWS values.
T = Trace of Precipitation, MM = Missing Value Source: NWS Daily Summary

Daily Weather History Graph

Daily Weather History Graph

Search for Another Location

Airport or City:

Trip Planner

Search our weather history database for the weather conditions in past years. The results will help you decide how hot, cold, wet, or windy it might be!

Date:

Astronomy

Jun. 20, 2013 Rise Set
Actual Time 5:23 AM PDT 7:59 PM PDT
Civil Twilight 4:52 AM PDT 8:29 PM PDT
Nautical Twilight 4:15 AM PDT 9:07 PM PDT
Astronomical Twilight 3:33 AM PDT 9:48 PM PDT
Moon 5:09 PM PDT (6/20) 2:48 AM PDT (6/20)
Length of Visible Light 15h 36m
Length of Day
14h 36m
Waxing Gibbous, 89% of the Moon is Illuminated
Jun 20
Waxing Gibbous
Jun 23
Full
Jun 29
Last Quarter
Jul 8
New
Jul 15
First Quarter

Hourly Weather History & Observations

Time (PDT) Temp. Dew Point Humidity Pressure Visibility Wind Dir Wind Speed Gust Speed Precip Events Conditions
12:15 AM 73.4 °F 24.8 °F 16% 29.73 in 10.0 mi Calm Calm - N/A Thunderstorm Clear
12:35 AM 73.4 °F 6.8 °F 8% 29.73 in 10.0 mi SW 5.8 mph - N/A   Clear
12:55 AM 75.2 °F 1.4 °F 6% 29.74 in 10.0 mi SW 8.1 mph - N/A   Clear
1:15 AM 78.8 °F 1.4 °F 5% 29.74 in 10.0 mi SW 6.9 mph - N/A   Clear
1:35 AM 77.0 °F -0.4 °F 5% 29.73 in 10.0 mi WSW 4.6 mph - N/A   Clear
1:55 AM 75.2 °F -0.4 °F 5% 29.73 in 10.0 mi West 3.5 mph - N/A   Clear
2:15 AM 75.2 °F -0.4 °F 5% 29.73 in 10.0 mi WNW 4.6 mph - N/A Thunderstorm Clear
2:35 AM 75.2 °F -0.4 °F 5% 29.72 in 10.0 mi West 3.5 mph - N/A   Clear
2:55 AM 71.6 °F -0.4 °F 6% 29.72 in 10.0 mi West 4.6 mph - N/A   Clear
3:15 AM 73.4 °F -0.4 °F 5% 29.72 in 10.0 mi WSW 4.6 mph - N/A   Clear
3:35 AM 73.4 °F -2.2 °F 5% 29.72 in 10.0 mi South 5.8 mph - N/A   Clear
3:55 AM 71.6 °F -2.2 °F 5% 29.72 in 10.0 mi WSW 4.6 mph - N/A   Clear
4:15 AM 69.8 °F -2.2 °F 6% 29.72 in 10.0 mi WSW 6.9 mph - N/A   Clear
4:35 AM 68.0 °F -2.2 °F 6% 29.73 in 10.0 mi WSW 4.6 mph - N/A   Clear
4:55 AM 64.4 °F 6.8 °F 10% 29.73 in 10.0 mi North 3.5 mph - N/A   Clear
5:15 AM 68.0 °F 6.8 °F 9% 29.74 in 10.0 mi North 3.5 mph - N/A   Clear
5:35 AM 66.2 °F 10.4 °F 11% 29.75 in 10.0 mi NNE 5.8 mph - N/A   Clear
5:55 AM 64.4 °F 19.4 °F 18% 29.75 in 10.0 mi NE 3.5 mph - N/A   Clear
6:15 AM 73.4 °F 6.8 °F 8% 29.77 in 10.0 mi Calm Calm - N/A   Clear
6:35 AM 71.6 °F 14.0 °F 11% 29.77 in 10.0 mi SE 3.5 mph - N/A   Clear
6:55 AM 75.2 °F -0.4 °F 5% 29.79 in 10.0 mi ESE 5.8 mph - N/A   Clear
7:15 AM 75.2 °F 1.4 °F 6% 29.80 in 10.0 mi ESE 3.5 mph - N/A   Clear
7:35 AM 77.0 °F 1.4 °F 5% 29.80 in 10.0 mi Calm Calm - N/A   Clear
7:55 AM 77.0 °F 5.0 °F 6% 29.80 in 7.0 mi Calm Calm - N/A   Clear
8:15 AM 80.6 °F 6.8 °F 6% 29.80 in 10.0 mi NW 8.1 mph - N/A Thunderstorm Clear
8:35 AM 82.4 °F 3.2 °F 5% 29.81 in 10.0 mi NNW 8.1 mph - N/A   Clear
8:55 AM 82.4 °F 5.0 °F 5% 29.82 in 10.0 mi NNW 6.9 mph - N/A   Clear
9:15 AM 84.2 °F 6.8 °F 5% 29.82 in 10.0 mi NW 9.2 mph - N/A   Clear
9:35 AM 84.2 °F 8.6 °F 6% 29.81 in 10.0 mi NNW 6.9 mph - N/A   Clear
9:55 AM 84.2 °F 8.6 °F 6% 29.82 in 10.0 mi NW 5.8 mph - N/A   Clear
10:15 AM 84.2 °F 6.8 °F 5% 29.82 in 10.0 mi WNW 5.8 mph - N/A   Clear
10:35 AM 86.0 °F 6.8 °F 5% 29.82 in 10.0 mi NNW 6.9 mph - N/A   Clear
10:55 AM 86.0 °F 6.8 °F 5% 29.82 in 10.0 mi North 5.8 mph - N/A Thunderstorm Clear
11:15 AM 86.0 °F 6.8 °F 5% 29.82 in 10.0 mi ENE 5.8 mph - N/A   Clear
11:35 AM 89.6 °F 6.8 °F 4% 29.81 in 10.0 mi West 8.1 mph - N/A Thunderstorm Clear
11:55 AM 89.6 °F 5.0 °F 4% 29.81 in 10.0 mi South 4.6 mph - N/A   Clear
12:15 PM 89.6 °F 5.0 °F 4% 29.80 in 10.0 mi WSW 3.5 mph - N/A   Clear
12:35 PM 89.6 °F 5.0 °F 4% 29.80 in 10.0 mi South 3.5 mph - N/A   Clear
12:55 PM 91.4 °F 5.0 °F 4% 29.79 in 10.0 mi Calm Calm - N/A   Clear
1:15 PM 91.4 °F 5.0 °F 4% 29.79 in 10.0 mi SSE 3.5 mph - N/A   Clear
1:35 PM 91.4 °F 6.8 °F 4% 29.78 in 10.0 mi West 5.8 mph - N/A   Clear
1:55 PM 93.2 °F 5.0 °F 4% 29.77 in 10.0 mi Calm Calm - N/A   Clear
2:15 PM 93.2 °F 6.8 °F 4% 29.76 in 10.0 mi SSE 3.5 mph - N/A   Clear
2:35 PM 95.0 °F 5.0 °F 4% 29.75 in 10.0 mi WSW 9.2 mph 21.9 mph N/A   Clear
2:55 PM 95.0 °F 3.2 °F 4% 29.74 in 10.0 mi ESE 4.6 mph - N/A   Clear
3:15 PM 95.0 °F 3.2 °F 4% 29.74 in 10.0 mi SSW 9.2 mph - N/A   Clear
3:35 PM 98.6 °F 6.8 °F 4% 29.73 in 10.0 mi SSE 13.8 mph 24.2 mph N/A   Clear
3:55 PM 96.8 °F 8.6 °F 4% 29.72 in 10.0 mi SSE 12.7 mph 25.3 mph N/A Thunderstorm Clear
4:15 PM 96.8 °F 6.8 °F 4% 29.72 in 10.0 mi SE 12.7 mph 19.6 mph N/A   Clear
4:35 PM 98.6 °F 8.6 °F 4% 29.72 in 10.0 mi West 9.2 mph 16.1 mph N/A   Clear
4:55 PM 98.6 °F 8.6 °F 4% 29.71 in 10.0 mi WSW 8.1 mph - N/A   Clear
5:15 PM 98.6 °F 8.6 °F 4% 29.71 in 10.0 mi WSW 6.9 mph 17.3 mph N/A   Clear
5:35 PM 98.6 °F 8.6 °F 4% 29.71 in 10.0 mi SW 12.7 mph 18.4 mph N/A   Clear
5:55 PM 96.8 °F 10.4 °F 4% 29.70 in 10.0 mi SW 13.8 mph 18.4 mph N/A   Clear
6:15 PM 96.8 °F 10.4 °F 4% 29.71 in 10.0 mi SW 16.1 mph 23.0 mph N/A   Clear
6:35 PM 96.8 °F 10.4 °F 4% 29.71 in 10.0 mi SSW 16.1 mph - N/A   Clear
6:55 PM 95.0 °F 8.6 °F 4% 29.71 in 10.0 mi SW 15.0 mph 18.4 mph N/A   Clear
7:15 PM 95.0 °F 6.8 °F 4% 29.71 in 10.0 mi SW 13.8 mph - N/A Thunderstorm Clear
7:35 PM 93.2 °F 6.8 °F 4% 29.72 in 10.0 mi WSW 12.7 mph - N/A   Clear
7:55 PM 91.4 °F 6.8 °F 4% 29.72 in 10.0 mi WSW 16.1 mph - N/A   Clear
8:15 PM 89.6 °F 6.8 °F 4% 29.73 in 10.0 mi SW 11.5 mph 18.4 mph N/A   Clear
8:35 PM 87.8 °F 3.2 °F 4% 29.73 in 10.0 mi SSW 13.8 mph - N/A   Clear
8:55 PM 86.0 °F 6.8 °F 5% 29.74 in 10.0 mi SSW 12.7 mph - N/A   Clear
9:15 PM 86.0 °F 8.6 °F 5% 29.75 in 10.0 mi SSW 11.5 mph - N/A   Clear
9:35 PM 84.2 °F 8.6 °F 6% 29.76 in 10.0 mi SW 9.2 mph - N/A   Clear
9:55 PM 84.2 °F 10.4 °F 6% 29.77 in 10.0 mi SSW 8.1 mph - N/A   Clear
10:15 PM 82.4 °F 10.4 °F 7% 29.77 in 10.0 mi Calm Calm - N/A   Clear
10:35 PM 82.4 °F 10.4 °F 7% 29.77 in 10.0 mi Calm Calm - N/A   Clear
10:55 PM 82.4 °F 10.4 °F 7% 29.77 in 10.0 mi WSW 3.5 mph - N/A   Clear
11:15 PM 80.6 °F 10.4 °F 7% 29.77 in 10.0 mi South 3.5 mph - N/A   Clear
11:35 PM 77.0 °F 15.8 °F 10% 29.78 in 10.0 mi Calm Calm - N/A   Clear
11:55 PM 75.2 °F 26.6 °F 17% 29.78 in 10.0 mi Calm Calm - N/A   Clear